[[{"header":{"parameterUnit":"m.s-1","parameterCategory":1,"la1":30.2991,"la2":30.254,"lo1":-89.0895,"lo2":-89.0444,"dx":0.0017,"dy":0.0017,"nx":28,"ny":28,"refTime":"2022-11-19T09:00:00:Z","depth":0,"parameterNumber":2,"parameterNumberName":"U-component_of_WINDS"},"data":[0,0,0,0,0,0,0,0,0,0,0,0,0,0,0,0,0,0,0,0,0,0,0,0,0,0,0,0,0,0,0,0,0,0,0,0,0,0,0,0,0,0,0,0,0,0,0,0,0,0,0,0,0,0,0,0,0,0,-3.0017,-3.0018,0,-3.008,-3.008,-3.0081,-2.9946,-2.9942,-2.9938,-2.9933,-3.0001,-3.0006,-3.0012,0,0,0,0,0,0,0,0,0,0,0,0,0,-2.9782,-2.9787,-3.0017,-3.0018,-3.0018,-3.008,-3.008,-3.0081,-2.9947,-2.9942,-2.9936,-2.9931,-2.9999,-3.0006,-3.0013,0,0,0,0,0,0,0,0,0,0,0,0,0,-2.9868,-2.9788,-3.0017,-2.9959,-2.9954,-3.0079,-3.008,-3.0082,-2.9948,-2.9942,-2.9935,-2.9929,-2.9996,-3.0005,-3.0014,-3.0199,0,0,-3.0041,-3.0044,0,0,0,0,0,0,0,0,-2.9864,-2.9877,-2.9966,-2.9963,-2.9958,-2.9998,-3.0022,-3.0121,-2.995,-2.9951,-2.9933,-2.9926,-3.0005,-3.0013,-3.0039,-3.0202,-3.0205,-3.0041,-3.0047,-3.005,-3.0053,0,0,0,0,0,0,0,-2.9858,-2.9874,-3.0042,-2.9968,-2.9963,-2.993,-2.9935,-3.004,-3.0014,-2.995,-2.994,-2.9949,-3.0002,-3.0031,-3.004,-3.0206,-3.0041,-3.0049,-3.0054,-3.0058,-3.0524,-3.0531,0,0,0,0,0,0,-2.9859,-2.9869,-3.004,-3.0044,-2.9894,-2.9939,-2.9945,-2.9992,-3.0013,-3.0009,-2.9955,-2.9943,-3.0019,-3.003,-3.0042,-3.0261,-3.005,-3.0059,-3.0064,-3.0517,-3.0526,-3.0533,0,0,0,0,0,0,-2.9854,-2.9875,-3.0037,-2.9954,-2.9972,-2.995,-3.0004,-2.9997,-3.0026,-3.0016,-3.0011,-2.999,-3.0015,-3.0029,-3.0161,-3.0261,-3.0063,-3.0071,-3.0509,-3.052,-3.0529,-3.0701,0,0,0,0,0,0,-2.9848,-2.9874,-2.9945,-2.9956,-2.9977,-3.0156,-3.001,-3.0003,-3.0041,-3.0026,-3.0048,-3.0045,-3.0011,-3.0148,-3.017,-3.027,-3.0077,-3.0499,-3.0513,-3.0526,-3.0686,-3.0716,-3.0741,0,0,0,0,0,-2.984,-2.9991,-2.9949,-2.997,-3.0064,-3.0162,-3.0173,-3.013,-3.005,-3.0121,-3.0114,-3.0044,-3.0246,-3.0163,-3.0186,-3.029,-3.0493,-3.0509,-3.0525,-3.0674,-3.071,-3.0741,0,0,0,0,0,0,-2.9993,-2.9992,-2.9945,-3.0104,-3.0134,-3.0139,-3.0227,-3.017,-3.0224,-3.0208,-3.0152,-3.0158,-3.0301,-3.0308,-3.0215,-3.047,-3.0356,-3.0377,-3.0461,-3.0496,-3.0523,-3.052,-3.0085,0,0,0,0,0,-3.0045,-3.0124,-3.0118,-3.0259,-3.0276,-3.0249,-3.029,-3.0254,-3.0283,-3.0295,-3.0298,-3.033,-3.0399,-3.0447,-3.0512,-3.0685,-3.0688,-3.0768,-3.0795,-3.0818,-3.0839,-3.0931,-3.0967,-3.0586,-3.0586,-3.0585,0,0,-3.0154,-3.0163,-3.0216,-3.029,-3.0309,-3.0392,-3.0261,-3.0355,-3.0416,-3.0309,-3.0434,-3.0437,-3.0468,-3.0622,-3.0689,-3.0632,-3.0944,-3.0839,-3.0857,-3.0865,-3.0951,-3.0987,-3.102,-3.0597,-3.0595,-3.0593,0,0,-3.0396,-3.041,-3.0529,-3.055,-3.0579,-3.056,-3.0589,-3.0601,-3.0599,-3.0723,-3.0644,-3.0716,-3.0838,-3.0864,-3.0893,-3.1142,-3.108,-3.1164,-3.131,-3.1401,-3.1431,-3.1458,-3.1548,-3.1581,-3.1183,-3.1184,-3.1184,0,-3.0529,-3.065,-3.0598,-3.0697,-3.0732,-3.0637,-3.0758,-3.078,-3.083,-3.0857,-3.0791,-3.0942,-3.0956,-3.1114,-3.1175,-3.1201,-3.1233,-3.1163,-3.1431,-3.1457,-3.1481,-3.1566,-3.16,-3.1194,-3.1193,-3.1192,-3.1191,0,-3.0812,-3.0898,-3.099,-3.104,-3.1084,-3.1194,-3.1159,-3.121,-3.1169,-3.1157,-3.1284,-3.1296,-3.1362,-3.1396,-3.1357,-3.1549,-3.1512,-3.144,-3.1324,-3.1528,-3.1608,-3.164,-3.1208,-3.1205,-3.1202,-3.1199,0,0,-3.1156,-3.1172,-3.1208,-3.1229,-3.1253,-3.1319,-3.1423,-3.1485,-3.1532,-3.1568,-3.1655,-3.1759,-3.1692,-3.1725,-3.1688,-3.1767,-3.1965,-3.1684,-3.1684,-3.1738,-3.2178,-3.2235,-3.2274,-3.1922,-3.1928,-3.1933,-3.2176,0,-3.1397,-3.1577,-3.1531,-3.171,-3.1789,-3.1698,-3.1789,-3.1814,-3.1805,-3.187,-3.1859,-3.1935,-3.1839,-3.1858,-3.1932,-3.1925,-3.2053,-3.1906,-3.2005,-3.2009,-3.2003,-3.2315,-3.2375,-3.2605,-3.2207,-3.2212,-3.2216,0,-3.1703,-3.175,-3.1937,-3.1947,-3.1978,-3.2061,-3.2115,-3.2178,-3.2204,-3.2191,-3.2227,-3.2173,-3.2277,-3.2158,-3.23,-3.2202,-3.2238,-3.2241,-3.2248,-3.2258,-3.2127,-3.2336,-3.2676,-3.2712,-3.2264,-3.226,-3.2256,0,-3.1938,-3.2048,-3.2173,-3.2194,-3.2209,-3.2269,-3.2278,-3.2297,-3.2337,-3.2383,-3.2409,-3.2467,-3.25,-3.2546,-3.2509,-3.2426,-3.2658,-3.2536,-3.2652,-3.2653,-3.2708,-3.2706,-3.3062,-3.2727,-3.2727,-3.2726,-3.2725,0,-3.2213,-3.2332,-3.2279,-3.2357,-3.2487,-3.2432,-3.2562,-3.2561,-3.2578,-3.2655,-3.2578,-3.2652,-3.2598,-3.2666,-3.2638,-3.2761,-3.2775,-3.2769,-3.2761,-3.2778,-3.2779,-3.2804,-3.2788,-3.2735,-3.2733,-3.2731,-3.273,0,-3.25,-3.2469,-3.26,-3.2602,-3.2605,-3.2701,-3.2703,-3.2776,-3.2758,-3.2856,-3.2876,-3.285,-3.2927,-3.2894,-3.2975,-3.2955,-3.3114,-3.3083,-3.3106,-3.3099,-3.3218,-3.3208,-3.3605,-3.3654,-3.3285,-3.3289,-3.3292,0,-3.2679,-3.2768,-3.2779,-3.2824,-3.2838,-3.2912,-3.2952,-3.2901,-3.2946,-3.2981,-3.305,-3.3119,-3.3172,-3.3299,-3.3288,-3.3349,-3.3321,-3.3455,-3.333,-3.3344,-3.3326,-3.3322,-3.3331,-3.3482,-3.3486,-3.349,-3.3493,0,-3.3002,-3.2982,-3.3042,-3.3098,-3.3147,-3.3188,-3.3223,-3.3264,-3.3214,-3.3269,-3.3345,-3.3387,-3.3468,-3.3539,-3.3592,-3.3601,-3.3541,-3.3531,-3.3562,-3.3582,-3.3593,-3.3591,-3.3177,-3.3524,-3.3521,-3.3518,-3.3517,-3.3515,-3.3242,-3.3317,-3.3336,-3.3406,-3.3426,-3.3459,-3.3527,-3.3518,-3.3581,-3.3643,-3.3608,-3.3699,-3.372,-3.3786,-3.3803,-3.3873,-3.382,-3.3864,-3.3876,-3.3888,-3.3905,-3.3579,-3.3882,-3.3881,-3.388,-3.388,-3.3879,0,-3.3563,-3.357,-3.3634,-3.3684,-3.3739,-3.3673,-3.3708,-3.3758,-3.3838,-3.3863,-3.3917,-3.4005,-3.4072,-3.4065,-3.4127,-3.4184,-3.4158,-3.4203,-3.42,-3.4203,-3.3948,-3.3916,-3.4223,-3.4223,-3.4223,-3.4223,-3.4223,-3.4223,-3.3737,-3.386,-3.3842,-3.3974,-3.3979,-3.4066,-3.4092,-3.4122,-3.4142,-3.4244,-3.4299,-3.4293,-3.4306,-3.4367,-3.4426,-3.4422,-3.445,-3.4506,-3.4492,-3.4255,-3.4221,-3.4188,-3.4159,-3.4512,-3.4512,-3.4742,-3.4744,-3.4745]},{"header":{"parameterUnit":"m.s-1","parameterCategory":1,"la1":30.2991,"la2":30.254,"lo1":-89.0895,"lo2":-89.0444,"dx":0.0017,"dy":0.0017,"nx":28,"ny":28,"refTime":"2022-11-19T09:00:00:Z","depth":0,"parameterNumber":3,"parameterNumberName":"V-component_of_WINDS"},"data":[0,0,0,0,0,0,0,0,0,0,0,0,0,0,0,0,0,0,0,0,0,0,0,0,0,0,0,0,0,0,0,0,0,0,0,0,0,0,0,0,0,0,0,0,0,0,0,0,0,0,0,0,0,0,0,0,0,0,-4.5271,-4.5271,0,-4.5352,-4.5353,-4.5354,-4.5309,-4.5307,-4.5304,-4.5302,-4.5382,-4.5387,-4.5391,0,0,0,0,0,0,0,0,0,0,0,0,0,-4.5071,-4.5075,-4.527,-4.5271,-4.5273,-4.5352,-4.5353,-4.5354,-4.5309,-4.5306,-4.5304,-4.5301,-4.5381,-4.5386,-4.5391,0,0,0,0,0,0,0,0,0,0,0,0,0,-4.5156,-4.5077,-4.527,-4.526,-4.526,-4.5352,-4.5353,-4.5354,-4.531,-4.5306,-4.5303,-4.53,-4.5379,-4.5386,-4.5392,-4.5498,0,0,-4.5411,-4.5414,0,0,0,0,0,0,0,0,-4.5151,-4.5163,-4.526,-4.5261,-4.5261,-4.5317,-4.5312,-4.5402,-4.5311,-4.5291,-4.5302,-4.5298,-4.5363,-4.5371,-4.5393,-4.5502,-4.5505,-4.5412,-4.5415,-4.5418,-4.542,0,0,0,0,0,0,0,-4.5145,-4.5159,-4.5303,-4.5262,-4.5262,-4.5249,-4.5258,-4.5329,-4.5344,-4.5292,-4.5289,-4.5299,-4.5362,-4.5387,-4.5395,-4.5506,-4.5411,-4.5417,-4.5421,-4.5423,-4.5703,-4.5706,0,0,0,0,0,0,-4.5141,-4.5155,-4.53,-4.5305,-4.5197,-4.5256,-4.5265,-4.5302,-4.5344,-4.5347,-4.5302,-4.5297,-4.5378,-4.5387,-4.5397,-4.5522,-4.5418,-4.5424,-4.5428,-4.5699,-4.5703,-4.5707,0,0,0,0,0,0,-4.5137,-4.5154,-4.5297,-4.5229,-4.5246,-4.5263,-4.5305,-4.5305,-4.533,-4.5351,-4.5353,-4.5325,-4.5376,-4.5388,-4.5473,-4.5524,-4.5427,-4.5433,-4.5695,-4.57,-4.5705,-4.5774,0,0,0,0,0,0,-4.5131,-4.5153,-4.5195,-4.523,-4.525,-4.5372,-4.5308,-4.531,-4.5341,-4.5335,-4.5373,-4.5376,-4.5374,-4.5464,-4.5479,-4.5531,-4.5438,-4.569,-4.5697,-4.5704,-4.5767,-4.5781,-4.5793,0,0,0,0,0,-4.5124,-4.5211,-4.5197,-4.5215,-4.5303,-4.5376,-4.5387,-4.5383,-4.5346,-4.5387,-4.54,-4.5375,-4.5517,-4.5473,-4.549,-4.5545,-4.5687,-4.5695,-4.5703,-4.5761,-4.5779,-4.5793,0,0,0,0,0,0,-4.518,-4.5215,-4.52,-4.5301,-4.5336,-4.5368,-4.542,-4.5402,-4.5447,-4.5439,-4.5433,-4.5441,-4.5529,-4.5545,-4.5496,-4.5648,-4.5596,-4.5608,-4.5634,-4.565,-4.5663,-4.5657,-4.5443,0,0,0,0,0,-4.5204,-4.5261,-4.5289,-4.5375,-4.5393,-4.5404,-4.5435,-4.543,-4.5465,-4.5479,-4.5498,-4.5532,-4.5584,-4.5618,-4.5667,-4.577,-4.5776,-4.5816,-4.5829,-4.5839,-4.5849,-4.5902,-4.5919,-4.5734,-4.5734,-4.5734,0,0,-4.5254,-4.528,-4.5317,-4.5387,-4.5413,-4.547,-4.5416,-4.548,-4.5522,-4.5488,-4.5569,-4.5584,-4.5621,-4.5714,-4.5757,-4.5731,-4.5902,-4.5849,-4.5858,-4.5862,-4.5912,-4.593,-4.5945,-4.574,-4.5739,-4.5738,0,0,-4.5375,-4.5402,-4.5475,-4.5502,-4.5543,-4.5549,-4.5566,-4.5601,-4.561,-4.5691,-4.5666,-4.5715,-4.5806,-4.5832,-4.5858,-4.5987,-4.5964,-4.6003,-4.607,-4.6122,-4.6136,-4.6149,-4.6193,-4.6209,-4.6013,-4.6013,-4.6013,0,-4.5432,-4.5519,-4.5515,-4.5581,-4.5611,-4.5583,-4.5657,-4.5683,-4.5737,-4.5757,-4.5728,-4.5839,-4.5863,-4.596,-4.5992,-4.6014,-4.6032,-4.5998,-4.6135,-4.6148,-4.6159,-4.6201,-4.6218,-4.6017,-4.6017,-4.6016,-4.6016,0,-4.5586,-4.5647,-4.5701,-4.5755,-4.5791,-4.586,-4.5865,-4.5902,-4.5893,-4.5902,-4.5983,-4.601,-4.6063,-4.6086,-4.6078,-4.6182,-4.6165,-4.6136,-4.6082,-4.6181,-4.622,-4.6237,-4.6024,-4.6022,-4.6021,-4.602,0,0,-4.5745,-4.5794,-4.5814,-4.5836,-4.5878,-4.5924,-4.5991,-4.6043,-4.6074,-4.6112,-4.6167,-4.6243,-4.6215,-4.6244,-4.6239,-4.6284,-4.6382,-4.6249,-4.6249,-4.6271,-4.6496,-4.6517,-4.6536,-4.6368,-4.6371,-4.6373,-4.6492,0,-4.5866,-4.5985,-4.5982,-4.6091,-4.6146,-4.6119,-4.6177,-4.6208,-4.6217,-4.6264,-4.6274,-4.6327,-4.6288,-4.6305,-4.6349,-4.6361,-4.6427,-4.6352,-4.6416,-4.6419,-4.6407,-4.6556,-4.6579,-4.669,-4.6508,-4.651,-4.6512,0,-4.6025,-4.6068,-4.6183,-4.6214,-4.6237,-4.6289,-4.6336,-4.6382,-4.6415,-4.6418,-4.645,-4.6437,-4.6502,-4.6448,-4.6538,-4.6487,-4.6513,-4.6522,-4.6527,-4.6531,-4.6471,-4.6564,-4.6726,-4.6742,-4.6537,-4.6535,-4.6533,0,-4.6127,-4.6213,-4.6292,-4.6313,-4.6352,-4.6389,-4.6407,-4.6437,-4.6468,-4.6509,-4.6528,-4.6576,-4.6601,-4.6638,-4.6636,-4.6598,-4.6726,-4.6672,-4.6729,-4.6729,-4.6756,-4.6755,-4.6924,-4.6776,-4.6776,-4.6775,-4.6775,0,-4.6262,-4.6333,-4.6338,-4.6387,-4.6464,-4.646,-4.6536,-4.655,-4.6577,-4.6627,-4.6607,-4.6653,-4.6649,-4.6696,-4.6695,-4.6768,-4.678,-4.6783,-4.6782,-4.6785,-4.6784,-4.68,-4.6792,-4.678,-4.6779,-4.6778,-4.6777,0,-4.6389,-4.6396,-4.648,-4.651,-4.6519,-4.6575,-4.6599,-4.6645,-4.6652,-4.6714,-4.6729,-4.674,-4.6793,-4.6796,-4.6858,-4.6857,-4.6945,-4.6936,-4.6934,-4.6932,-4.6988,-4.6982,-4.7172,-4.7196,-4.7034,-4.7036,-4.7037,0,-4.6475,-4.6528,-4.6564,-4.6596,-4.6616,-4.6668,-4.6699,-4.6696,-4.6729,-4.677,-4.681,-4.6862,-4.6903,-4.6989,-4.7002,-4.7048,-4.7039,-4.7102,-4.7046,-4.7046,-4.7037,-4.7034,-4.7038,-4.7113,-4.7115,-4.7116,-4.7117,0,-4.6625,-4.6625,-4.6672,-4.6719,-4.6757,-4.6794,-4.6829,-4.6856,-4.6856,-4.6894,-4.6949,-4.6981,-4.7043,-4.7094,-4.7139,-4.7155,-4.7136,-4.7135,-4.715,-4.7153,-4.7149,-4.715,-4.6962,-4.7131,-4.7129,-4.7128,-4.7128,-4.7127,-4.6733,-4.6778,-4.681,-4.6862,-4.6887,-4.6919,-4.6963,-4.6975,-4.7021,-4.7072,-4.7067,-4.7127,-4.7157,-4.7215,-4.7235,-4.7281,-4.7259,-4.7282,-4.7287,-4.7292,-4.7297,-4.7143,-4.7289,-4.7289,-4.7289,-4.7288,-4.7288,0,-4.688,-4.6899,-4.6947,-4.6996,-4.7036,-4.7015,-4.7052,-4.7086,-4.714,-4.7169,-4.721,-4.7272,-4.732,-4.7336,-4.7383,-4.7416,-4.7409,-4.7429,-4.7425,-4.7429,-4.7315,-4.7297,-4.7434,-4.7434,-4.7434,-4.7434,-4.7434,-4.7434,-4.6962,-4.7037,-4.7041,-4.7128,-4.7146,-4.7205,-4.7227,-4.7256,-4.728,-4.735,-4.739,-4.7401,-4.7424,-4.7472,-4.7515,-4.7519,-4.7536,-4.7559,-4.7559,-4.7452,-4.7437,-4.7423,-4.7406,-4.7564,-4.7564,-4.7668,-4.7669,-4.767]}]]